Voltar ao catálogo

STARLINK-5334

AtivoComunicaçõesVLEO
NORAD 56509·PAYLOAD·🇺🇸 United States

Lançado May 14, 2023 de Cape Canaveral Space Force Station

Loading…

Próximas Passagens (próximas 24 horas)

TLE

AtualizadoSource: CelesTrak SupGP

Época: Sep 14, 2026, 20:48 UTC

1 56509C 23065G   26257.86715278  .00031005  00000+0  11231-2 0  2572
2 56509  42.9994 223.8720 0001170 252.5997 146.1266 15.27560607    12

Acompanhe STARLINK-5334 em tempo real com AllMySat

Download on the App Store